Temperature
23 21 21 21 21 22 23 23 22 23 22 20 18 17 17 17 17 16 16 15 16 16 17 18 18 19 19 19 19 19 19 19 18 18 17 17 17 17 17 17 18 17 17 17
21 22 22 23 22 22 22 23 22 23 22 20 18 18 17 17 16 16 15 15 15 16 17 17 18 18 18 18 18 18 18 18 17 17 17 17 17 17 17 17 17 17 17 17
23 23 24 24 24 23 23 23 23 23 22 20 19 19 17 17 16 15 15 15 15 16 17 17 18 18 18 17 17 18 18 17 17 17 17 17 17 17 17 17 17 17 17 17
23 23 24 25 25 25 24 24 24 23 22 19 20 19 18 16 16 16 15 15 15 16 16 17 17 17 17 17 17 17 17 17 17 17 16 16 17 17 16 16 16 16 16 17
23 24 24 25 25 25 24 23 22 21 20 19 18 18 17 16 16 16 15 15 15 16 16 16 17 17 17 17 17 17 17 17 17 16 16 16 16 16 16 16 15 16 16 16
23 24 24 24 24 24 23 21 20 18 17 19 19 18 18 16 16 16 15 15 15 16 16 16 16 17 17 17 17 17 17 17 16 16 16 16 16 15 15 15 15 15 15 15
22 23 23 24 24 23 22 20 19 19 18 18 18 17 17 17 16 16 15 15 15 16 16 16 16 16 16 16 16 16 16 16 16 16 16 16 15 15 15 15 15 14 14 14
22 21 23 24 24 23 22 20 19 20 19 18 17 17 17 16 16 16 16 16 15 15 16 16 16 16 16 16 16 16 16 16 15 15 15 15 15 14 14 14 14 14 13 13
21 22 23 23 23 23 22 19 18 17 18 17 17 17 17 16 15 15 15 15 15 16 16 16 16 16 16 16 16 15 15 15 15 15 14 14 14 14 13 13 13 13 13 12
21 21 22 22 22 21 20 18 16 17 18 18 18 17 16 16 15 15 14 15 16 16 16 16 16 16 16 15 15 15 14 14 14 14 14 13 13 13 13 12 12 12 12 11
21 20 20 20 20 20 20 19 15 14 16 17 17 17 16 15 14 14 14 15 16 16 16 16 16 16 15 15 14 14 14 14 13 13 13 13 13 13 12 12 12 11 11 11
18 17 18 19 20 20 19 18 17 17 17 15 15 15 15 14 14 14 15 16 16 16 16 16 16 15 15 15 14 14 14 13 13 13 13 13 13 12 12 12 12 11 11 11
18 17 17 18 18 18 18 18 16 14 14 14 15 16 15 14 14 15 15 16 16 16 16 15 15 15 14 14 14 14 13 13 13 13 13 13 12 12 12 12 11 11 11 11
17 16 17 18 18 18 18 18 17 15 15 15 16 16 15 14 14 14 15 16 16 15 15 15 14 14 14 13 13 13 13 13 13 12 12 12 12 12 12 11 11 11 11 10
17 17 18 18 18 18 18 18 17 17 17 16 16 15 14 14 13 14 15 15 15 15 14 14 14 13 13 13 13 13 12 12 12 12 12 11 11 11 11 11 11 11 11 10
15 17 18 18 18 18 17 17 17 17 17 16 15 14 14 14 14 14 15 15 14 14 13 13 13 12 12 12 12 11 11 11 11 11 11 11 11 11 11 11 11 10 10 10
15 16 16 17 17 17 16 17 17 17 16 15 14 14 13 12 13 14 14 14 13 13 12 12 11 11 11 11 10 10 10 10 10 10 10 10 10 10 10 10 10 10 10 10
15 14 13 15 17 18 16 17 17 16 15 14 14 13 13 13 14 14 14 13 12 12 11 11 10 10 10 10 9 9 9 9 8 8 8 8 8 8 9 9 9 9 9 9
14 14 14 14 16 16 17 17 16 15 14 14 13 12 13 14 12 12 13 12 12 11 10 10 9 9 9 8 8 8 7 7 7 7 7 7 7 7 7 8 8 8 8 8
14 13 14 14 17 17 17 17 17 15 14 14 13 12 12 11 9 10 12 11 11 10 10 9 9 8 8 8 7 7 7 7 7 6 6 6 6 6 6 7 7 7 7 7
16 14 14 15 16 15 16 16 16 15 14 15 14 13 13 11 10 12 11 10 10 9 9 8 8 7 7 7 6 6 6 6 6 6 6 6 6 6 6 6 6 6 7 7
16 15 14 13 15 16 16 16 14 14 15 15 14 13 13 12 12 11 10 10 9 8 8 7 7 7 7 6 6 6 6 6 5 5 5 5 5 5 5 5 6 6 6 6
14 14 13 14 15 16 16 16 16 15 15 14 13 13 12 11 11 10 9 9 8 8 7 7 6 6 6 6 6 5 5 5 5 5 5 5 5 5 5 5 5 5 6 6
15 12 13 13 14 15 16 16 16 15 14 13 13 12 11 10 10 9 9 8 8 7 7 6 6 6 6 6 5 5 5 5 5 5 5 5 5 5 5 5 5 5 5 5
15 14 13 14 14 15 16 16 15 14 14 13 12 11 11 10 9 9 8 7 7 7 6 6 6 5 5 5 5 5 5 5 5 5 5 5 5 4 4 5 5 5 5 5
13 14 14 14 16 14 16 16 15 14 13 12 11 11 10 9 9 8 8 7 7 6 6 6 6 5 5 5 5 5 5 5 5 5 5 5 5 4 4 5 5 5 5 5
Wind_Speed
4 3 4 8 9 7 3 3 4 4 1 6 8 7 9 11 11 11 10 10 9 9 8 9 9 8 8 7 6 5 4 3 1 0 0 1 4 3 3 4 4 5 5 5
4 4 8 6 5 5 4 3 3 1 3 4 5 6 6 9 8 8 8 8 8 8 8 9 9 9 9 7 6 7 5 4 3 2 1 1 1 1 2 1 1 1 2 3
5 7 5 2 1 3 3 5 4 3 2 4 3 3 4 4 6 8 8 6 6 6 5 6 8 8 8 7 6 6 6 5 4 4 2 2 2 2 2 1 1 2 3 2
4 5 4 2 1 3 2 3 3 2 3 1 2 2 3 3 4 5 6 5 5 4 4 4 5 6 7 5 5 5 5 5 5 4 4 4 3 2 3 2 2 3 3 3
5 3 3 3 3 2 2 4 4 3 4 3 4 2 5 2 3 3 3 3 3 3 3 4 4 4 4 3 3 3 5 6 5 5 5 5 4 2 2 3 4 4 3 4
5 3 2 3 3 1 3 6 6 6 5 2 2 1 5 3 3 2 2 2 2 2 3 3 3 3 2 2 2 2 4 4 3 4 5 5 5 3 3 3 2 2 2 2
8 7 4 1 3 5 6 6 6 7 5 4 2 1 6 3 3 3 3 3 2 2 2 2 3 3 3 3 2 1 1 1 1 2 3 3 4 3 3 1 1 0 1 1
4 7 6 4 0 1 2 7 6 3 4 5 3 2 4 1 1 0 1 2 2 3 4 5 5 5 5 5 5 4 4 3 3 3 3 3 3 3 2 3 3 2 2 3
2 6 5 4 4 2 3 3 4 6 1 2 4 4 4 2 2 1 2 2 3 4 6 6 7 8 8 8 7 6 5 5 5 5 5 5 5 5 5 5 4 3 4 4
4 4 6 6 6 8 5 7 5 4 2 3 5 3 4 5 5 3 2 3 4 5 6 7 8 8 8 8 7 6 6 7 7 7 7 6 7 7 7 6 6 6 6 5
3 1 6 6 7 6 6 5 6 4 4 3 3 5 2 5 5 3 3 4 5 6 7 7 7 7 7 7 7 7 8 8 8 9 9 8 8 8 8 7 8 8 7 7
3 4 2 4 3 2 4 4 3 2 0 2 2 5 4 3 3 2 3 4 5 6 7 7 7 7 7 8 8 8 9 10 11 11 10 10 10 9 9 10 10 9 9 8
5 5 4 7 7 7 6 5 4 5 4 2 0 5 3 4 5 3 4 6 6 7 8 7 7 7 8 9 9 10 10 11 12 11 10 11 11 11 11 12 11 10 10 9
5 5 4 3 4 2 4 5 4 5 3 1 4 6 5 5 5 6 7 7 8 9 9 9 8 9 10 10 10 11 11 11 11 11 11 11 12 13 13 12 11 11 10 10
5 5 2 1 2 4 4 5 5 4 1 3 6 6 6 5 6 7 8 9 10 11 10 10 10 10 10 11 11 11 11 12 11 11 11 13 13 12 12 11 12 11 11 11
5 5 3 3 4 6 5 6 4 2 2 3 5 6 6 6 6 7 10 11 11 12 11 12 12 12 12 12 12 12 12 12 11 11 12 12 12 12 12 12 12 11 11 10
3 5 3 2 2 2 2 2 2 4 5 5 6 6 6 8 9 9 10 11 11 12 12 12 12 12 12 12 12 11 12 11 11 11 12 12 12 12 12 13 11 11 11 10
6 5 4 2 3 2 5 3 3 5 6 5 6 7 8 10 10 10 10 10 11 11 11 12 11 12 12 12 12 11 11 11 11 12 12 12 11 12 11 11 11 11 9 9
4 7 4 3 0 3 3 2 2 4 7 5 6 9 9 8 8 8 9 8 9 11 11 12 12 13 12 13 13 12 12 12 12 13 13 13 12 12 11 11 11 10 9 9
7 6 6 3 1 3 5 4 2 0 6 4 5 8 9 7 7 8 8 9 10 11 11 12 12 13 13 14 12 12 14 14 14 14 13 12 12 12 12 12 11 9 9 10
4 5 4 3 1 6 5 3 2 1 7 4 5 8 8 6 8 10 11 10 10 12 13 13 13 13 13 14 13 14 14 15 15 14 13 12 11 11 11 11 9 9 9 9
4 3 3 3 0 5 3 2 3 7 5 5 6 7 8 9 10 10 11 11 12 13 13 13 13 14 14 13 13 14 15 15 14 13 13 12 11 11 10 8 8 8 8 8
5 6 6 7 6 6 4 6 4 4 4 6 5 7 7 8 9 10 9 11 12 13 13 13 14 15 15 13 13 15 16 15 14 13 13 12 11 10 9 8 8 7 6 6
2 3 4 3 7 6 5 4 3 3 5 6 6 7 6 8 10 11 11 11 12 11 14 13 14 16 16 15 14 14 15 14 13 13 12 11 10 9 8 7 6 6 6 6
5 6 3 4 6 5 5 5 4 4 4 5 6 5 6 8 10 10 10 12 12 13 12 13 14 16 18 17 16 15 14 13 13 12 11 10 8 8 7 6 5 6 6 6
5 7 7 7 7 6 6 4 3 3 4 5 6 7 7 7 9 10 10 11 12 14 14 15 16 17 17 17 17 15 13 12 12 11 9 7 6 6 5 5 5 6 8 9
Wind_Direction
32 59 255 240 210 216 227 259 289 297 76 70 74 58 26 25 48 53 54 55 57 53 38 35 38 40 52 54 57 58 57 50 31 292 237 238 239 223 220 221 215 220 229 228
19 288 253 243 205 196 209 239 257 295 77 101 88 57 34 37 43 49 58 55 49 45 35 34 42 43 44 46 52 60 50 29 354 333 316 287 223 207 223 253 258 232 241 242
214 254 293 308 195 169 203 194 219 200 90 75 96 19 19 34 48 52 52 53 51 53 41 33 39 43 42 35 41 58 51 44 25 16 15 349 3 22 26 19 357 347 330 289
255 272 311 344 321 154 264 252 210 170 118 7 50 285 316 356 10 29 30 32 30 26 34 37 41 46 42 29 48 63 61 59 54 58 68 61 49 30 358 338 13 14 15 3
293 300 327 322 287 202 201 57 75 77 112 66 32 105 290 342 329 336 353 6 10 7 19 32 32 45 46 36 46 68 69 61 59 71 85 86 76 59 25 27 36 26 19 20
266 284 250 270 325 46 109 72 56 50 64 34 330 132 279 256 239 256 288 313 321 338 358 6 7 18 10 359 10 37 72 69 63 77 86 97 100 94 72 47 33 19 6 13
335 334 330 318 359 17 63 71 23 0 4 268 307 195 257 264 240 217 232 260 275 286 303 306 309 302 290 286 275 255 152 151 150 118 115 124 132 136 137 153 145 56 355 325
353 316 322 343 267 232 71 123 148 220 243 285 342 268 276 311 332 287 247 264 270 274 275 272 266 261 258 255 252 246 233 227 220 200 192 191 181 175 192 205 204 212 225 247
218 278 314 357 0 95 102 85 144 135 147 310 301 295 323 49 4 322 293 297 276 268 266 263 260 256 253 253 251 245 244 249 248 238 226 222 217 212 215 222 224 228 232 241
177 274 316 328 30 31 82 129 85 99 131 293 307 315 315 322 306 296 295 292 282 281 277 269 261 258 258 257 262 264 251 247 249 247 241 234 228 226 224 220 226 231 236 237
112 140 325 17 35 355 18 47 84 99 138 159 286 297 330 302 305 292 287 286 283 284 282 279 277 275 271 268 262 257 256 254 256 251 246 246 243 236 231 230 234 233 235 234
99 106 350 317 317 350 63 55 117 109 29 133 191 278 337 348 351 338 317 308 301 295 287 282 281 282 278 271 265 259 255 253 252 250 246 245 247 245 240 239 240 235 234 235
113 85 34 356 351 8 37 33 76 102 99 110 225 280 354 19 13 354 325 309 302 298 294 292 292 287 281 275 270 266 261 257 257 255 252 252 251 247 244 242 241 236 233 236
104 84 129 188 258 318 28 24 58 85 83 299 249 267 313 336 328 315 305 296 296 295 292 290 289 284 280 277 273 270 268 265 264 261 258 257 255 251 248 245 241 237 232 232
84 86 73 37 34 89 69 47 54 73 145 222 267 263 271 275 282 285 287 291 297 296 293 290 285 283 284 285 282 278 275 274 271 268 264 261 260 256 253 250 246 242 237 235
68 109 91 48 54 73 62 32 36 22 307 266 275 274 260 278 289 287 287 290 293 291 290 290 289 289 290 288 286 285 283 282 281 276 272 269 265 262 257 253 249 244 242 239
83 114 107 199 269 13 330 295 301 278 259 247 257 267 293 296 292 284 284 290 291 292 292 292 293 291 290 289 287 286 285 287 285 281 280 277 272 267 261 258 251 243 242 241
122 100 106 103 70 271 252 250 249 258 262 242 250 269 276 271 278 280 279 283 290 293 293 294 294 292 291 290 289 288 290 288 285 283 282 280 277 272 267 257 249 245 240 237
115 123 104 99 106 295 281 277 278 272 281 230 246 273 283 295 314 296 283 286 285 289 291 292 291 293 292 294 294 295 295 293 290 288 285 282 276 273 270 264 254 249 241 237
55 78 101 105 111 265 252 270 298 276 293 250 254 280 292 319 318 294 295 303 298 297 297 297 298 298 298 297 297 297 297 295 292 290 287 284 279 273 270 265 259 252 242 241
36 43 83 121 239 271 256 281 47 18 273 284 270 277 287 275 259 279 301 301 294 295 297 299 300 301 299 299 300 299 297 293 292 291 290 287 280 275 273 266 259 251 244 241
161 138 157 137 46 281 239 141 186 232 263 283 280 279 279 275 280 291 298 298 301 302 302 303 304 303 301 301 301 300 297 296 296 293 290 286 282 280 282 270 262 253 242 240
181 185 184 184 213 240 235 217 233 208 253 272 274 283 285 286 289 296 294 296 300 302 304 306 305 306 306 304 301 299 298 299 297 294 290 288 285 280 275 270 264 258 242 237
228 142 141 237 263 252 245 247 264 246 255 276 280 285 287 287 291 297 298 302 305 304 309 309 311 312 311 310 306 300 300 301 298 297 294 290 286 282 278 271 260 252 244 236
217 164 171 250 275 292 273 247 255 277 290 298 300 290 289 292 296 296 302 307 309 311 311 313 315 314 313 313 311 308 307 307 303 300 298 295 286 282 281 274 261 252 246 235
198 175 174 220 224 201 246 254 241 264 288 296 300 302 303 297 293 300 305 305 309 314 317 319 319 318 316 317 316 315 313 311 307 305 303 298 289 285 279 279 282 260 250 253
Height
1486 1491 1495 1492 1490 1490 1492 1494 1496 1490 1484 1489 1494 1496 1494 1490 1488 1487 1487 1486 1486 1486 1487 1486 1487 1488 1488 1488 1489 1490 1491 1492 1492 1491 1490 1488 1488 1490 1492 1493 1494 1495 1498 1499
1491 1492 1483 1481 1483 1487 1491 1494 1494 1489 1485 1490 1496 1497 1495 1494 1493 1492 1491 1490 1490 1489 1489 1488 1488 1488 1488 1488 1488 1489 1489 1490 1490 1489 1488 1487 1487 1488 1489 1490 1492 1493 1494 1495
1491 1486 1478 1478 1481 1485 1487 1490 1488 1488 1488 1491 1495 1500 1499 1497 1496 1495 1494 1493 1492 1491 1491 1490 1489 1488 1488 1490 1488 1489 1489 1489 1489 1489 1488 1487 1487 1487 1487 1487 1489 1490 1491 1493
1486 1480 1479 1479 1480 1481 1488 1479 1481 1484 1493 1502 1498 1511 1502 1500 1498 1497 1496 1495 1493 1492 1491 1491 1491 1490 1490 1490 1490 1489 1490 1489 1489 1488 1488 1487 1486 1486 1485 1484 1484 1486 1488 1490
1486 1480 1480 1481 1478 1476 1480 1479 1482 1487 1493 1504 1505 1511 1509 1501 1501 1499 1497 1496 1495 1494 1493 1493 1492 1492 1491 1492 1492 1491 1490 1489 1489 1489 1488 1487 1486 1485 1485 1483 1483 1484 1485 1486
1482 1478 1478 1477 1475 1475 1477 1483 1489 1497 1504 1514 1509 1512 1511 1505 1501 1499 1497 1497 1496 1496 1495 1495 1494 1494 1494 1494 1493 1492 1491 1489 1489 1488 1487 1486 1485 1484 1484 1483 1482 1481 1481 1481
1489 1481 1477 1476 1477 1478 1482 1496 1515 1517 1524 1520 1509 1512 1511 1499 1498 1498 1498 1498 1498 1497 1497 1496 1496 1496 1495 1494 1494 1492 1491 1489 1488 1487 1485 1484 1483 1482 1481 1480 1479 1477 1477 1477
1502 1500 1482 1478 1479 1483 1486 1495 1517 1525 1527 1521 1512 1513 1506 1498 1498 1498 1498 1498 1498 1498 1498 1497 1496 1496 1495 1494 1493 1491 1490 1488 1486 1485 1483 1482 1480 1479 1478 1476 1475 1474 1473 1473
1501 1500 1482 1479 1478 1479 1487 1497 1499 1515 1518 1523 1517 1509 1503 1499 1499 1499 1499 1498 1498 1498 1498 1497 1496 1495 1493 1492 1491 1489 1487 1486 1484 1482 1480 1479 1477 1476 1474 1473 1472 1470 1470 1469
1493 1499 1488 1483 1480 1483 1487 1495 1507 1516 1524 1527 1517 1514 1514 1504 1502 1500 1499 1498 1498 1498 1497 1496 1494 1493 1491 1489 1487 1485 1484 1482 1480 1479 1477 1475 1473 1472 1471 1469 1468 1466 1465 1464
1491 1501 1498 1492 1495 1497 1494 1499 1509 1519 1520 1527 1528 1522 1507 1506 1503 1501 1499 1498 1498 1497 1495 1494 1492 1490 1487 1485 1483 1481 1479 1478 1476 1474 1472 1470 1469 1467 1465 1464 1462 1461 1460 1460
1494 1504 1509 1501 1494 1493 1494 1500 1507 1516 1520 1525 1529 1526 1506 1504 1502 1500 1499 1498 1497 1496 1494 1491 1488 1486 1483 1481 1479 1477 1475 1473 1471 1469 1466 1464 1462 1461 1459 1458 1457 1456 1455 1454
1495 1506 1518 1515 1510 1501 1501 1503 1507 1515 1523 1527 1528 1522 1506 1504 1502 1501 1499 1498 1496 1494 1491 1488 1485 1482 1480 1477 1475 1472 1469 1467 1464 1462 1459 1457 1455 1453 1452 1450 1449 1449 1448 1447
1492 1508 1517 1521 1516 1508 1508 1507 1507 1513 1524 1524 1519 1515 1508 1505 1503 1500 1498 1496 1493 1491 1488 1485 1481 1478 1475 1472 1469 1466 1463 1460 1457 1454 1451 1449 1447 1445 1443 1442 1441 1440 1440 1439
1494 1509 1509 1510 1507 1506 1509 1510 1510 1512 1514 1519 1515 1512 1507 1504 1502 1499 1496 1494 1490 1487 1484 1481 1477 1474 1470 1466 1463 1459 1455 1452 1449 1445 1442 1439 1437 1435 1434 1432 1432 1431 1431 1431
1499 1508 1510 1512 1510 1509 1513 1512 1511 1511 1511 1512 1511 1510 1503 1502 1500 1497 1494 1490 1487 1483 1480 1477 1473 1468 1464 1460 1455 1451 1447 1443 1440 1436 1433 1430 1428 1425 1424 1423 1422 1422 1422 1422
1504 1509 1516 1520 1513 1514 1521 1514 1512 1511 1510 1510 1512 1508 1502 1500 1497 1494 1490 1487 1483 1480 1476 1471 1467 1462 1458 1453 1448 1443 1438 1434 1430 1426 1423 1420 1417 1415 1413 1412 1412 1411 1412 1413
1504 1513 1521 1523 1520 1524 1519 1508 1508 1509 1507 1506 1505 1503 1501 1498 1494 1491 1488 1484 1480 1476 1471 1466 1461 1456 1451 1446 1440 1435 1430 1425 1421 1417 1413 1410 1407 1405 1403 1402 1401 1402 1402 1403
1500 1509 1520 1526 1525 1522 1514 1508 1508 1510 1509 1503 1503 1500 1498 1495 1491 1487 1485 1481 1477 1472 1466 1461 1455 1449 1443 1438 1432 1427 1421 1417 1412 1407 1404 1400 1398 1395 1393 1392 1392 1392 1393 1393
1503 1507 1518 1525 1523 1525 1516 1506 1505 1508 1510 1502 1500 1498 1495 1493 1493 1485 1480 1477 1472 1467 1461 1455 1449 1443 1436 1431 1425 1419 1413 1408 1404 1399 1395 1391 1388 1386 1384 1383 1382 1383 1383 1384
1511 1516 1522 1524 1524 1520 1508 1505 1506 1515 1511 1500 1498 1496 1493 1491 1488 1482 1477 1472 1467 1462 1456 1449 1443 1436 1430 1424 1418 1412 1406 1400 1396 1391 1387 1383 1380 1377 1375 1374 1373 1373 1374 1375
1513 1518 1521 1527 1525 1521 1504 1504 1507 1506 1499 1498 1495 1493 1490 1487 1483 1478 1473 1468 1462 1456 1449 1443 1436 1429 1423 1417 1411 1404 1398 1393 1388 1383 1379 1375 1372 1370 1368 1366 1365 1365 1366 1367
1510 1510 1513 1515 1514 1503 1501 1501 1500 1499 1497 1495 1493 1491 1488 1483 1479 1474 1469 1463 1457 1451 1444 1437 1430 1423 1416 1411 1405 1397 1391 1386 1380 1376 1371 1368 1365 1363 1361 1360 1358 1359 1359 1360
1505 1505 1507 1508 1503 1499 1499 1498 1498 1497 1495 1493 1491 1488 1485 1480 1475 1470 1465 1458 1452 1445 1438 1431 1424 1417 1410 1404 1398 1392 1385 1379 1373 1369 1365 1361 1359 1356 1355 1354 1353 1353 1353 1354
1500 1502 1505 1504 1500 1498 1496 1496 1495 1494 1493 1491 1488 1485 1482 1477 1472 1467 1460 1454 1448 1441 1434 1427 1420 1412 1405 1398 1392 1385 1379 1373 1368 1363 1359 1356 1353 1351 1350 1349 1348 1348 1348 1349
1496 1498 1501 1501 1495 1496 1494 1494 1493 1492 1490 1488 1485 1482 1478 1474 1469 1463 1457 1451 1444 1436 1429 1423 1416 1408 1401 1393 1386 1380 1374 1368 1363 1358 1355 1352 1349 1347 1346 1345 1344 1344 1344 1344